Other Public Products
Issued by NWS Charleston, SC

Current Version | Previous Version | Text Only | Print | Product List | Glossary Off
Versions: 1 2 3 4 5 6 7 8 9 10 11 12 13 14 15 16 17 18 19 20 21 22 23 24 25 26 27 28 29 30 31 32 33 34 35 36 37 38 39 40 41 42 43 44 45 46 47 48 49 50
572 FPUS82 KCHS 171227 OPUCHS TEST...KCHS/KSAV Gateway Observations...TEST National Weather Service Charleston SC 700 AM EST SAT FEB 17 2018 NOTE: "fair" indicates few or no clouds below 12,000 feet with no significant weather and/or obstructions to visibility. SCZ050-WAZ558-NCZ071-TXZ119-213-PAZ071-DCZ001-FLZ074-172-MI076- NYZ176-178-MAZ016-IL014-TNZ027-NJZ106-GAZ044-MD014-171300- ...Gateway Observations for Charleston International... CITY SKY/WX TMP DP RH WIND PRES REMARKS Chas Airport CLOUDY 64 48 56 E13 30.17S 6HR MIN TEMP: 61; 6HR MAX TEMP: 67; Seattle CLOUDY 45 42 89 S15 29.95F 6HR MIN TEMP: 45; 6HR MAX TEMP: 46; Charlotte CLOUDY 53 38 56 E14 30.22S 6HR MIN TEMP: 53; 6HR MAX TEMP: 58; Dallas DFW LGT RAIN 44 40 85 SE3 30.07F 6HR MIN TEMP: 43; 6HR MAX TEMP: 47; 6HR PCP: TRACE; Dallas Love DRIZZLE 43 38 82 CALM 30.09F 6HR MIN TEMP: 42; 6HR MAX TEMP: 47; 6HR PCP: 0.01; Philladelphia MOCLDY 29 15 56 N12G22 30.40R WCI 19 6HR MIN TEMP: 28; 6HR MAX TEMP: 36; Wash National MOCLDY 34 24 67 NE8 30.38R WCI 27 6HR MIN TEMP: 34; 6HR MAX TEMP: 39; Baltimore MOCLDY 31 22 69 VRB3 30.37R 6HR MIN TEMP: 29; 6HR MAX TEMP: 37; Miami FAIR 67 63 87 CALM 30.19R 6HR MIN TEMP: 66; 6HR MAX TEMP: 72; Detroit MOCLDY 22 18 85 S8 30.21F WCI 12 6HR MIN TEMP: 19; 6HR MAX TEMP: 23; Newark MOCLDY 26 14 60 NE7 30.40R WCI 18 6HR MIN TEMP: 26; 6HR MAX TEMP: 33; Laguardia FAIR 30 16 56 NW7 30.40R WCI 23 6HR MIN TEMP: 30; 6HR MAX TEMP: 36; J F K MOCLDY 28 17 63 NW8 30.41R WCI 20 6HR MIN TEMP: 28; 6HR MAX TEMP: 34; Boston Logan FAIR 27 12 53 NW9 30.38R WCI 18 6HR MIN TEMP: 27; 6HR MAX TEMP: 32; Ft. Lauderdale FAIR 66 66 100 CALM 30.18R 6HR MIN TEMP: 65; 6HR MAX TEMP: 72; Chicago O`Hare CLOUDY 18 10 71 S8 30.13F WCI 8 6HR MIN TEMP: 17; 6HR MAX TEMP: 20; Chicago Midway CLOUDY 18 9 68 S6 30.16S WCI 10 6HR MIN TEMP: 17; 6HR MAX TEMP: 20; Houston Bush CLOUDY 65 62 90 N5 30.04R 6HR MIN TEMP: 62; 6HR MAX TEMP: 65; Houston Hobby CLOUDY 68 68 100 SW7 30.03R 6HR MIN TEMP: 67; 6HR MAX TEMP: 69; Nashville CLOUDY 42 38 85 E6 30.12F 6HR MIN TEMP: 41; 6HR MAX TEMP: 42; 6HR PCP: TRACE; Atlanta CLOUDY 53 48 83 NE5 30.14R 6HR MIN TEMP: 51; 6HR MAX TEMP: 54; $$ GAZ044-118-TXZ119-213-NCZ071-DCZ001-MDZ014-506-PAZ021-071-NJZ106- NYZ176-178-MAZ106-OHZ011-021-055-MIZ076-KYZ091-ILZ014-INZ047- MNZ060-ONZ431-171300- ...Gateway Observations for Savannah International... CITY SKY/WX TMP DP RH WIND PRES REMARKS Savannah Arpt FOG 58 58 100 CALM 30.17R VSB 1/4 6HR MIN TEMP: 58; 6HR MAX TEMP: 64; Atlanta CLOUDY 53 48 83 NE5 30.14R 6HR MIN TEMP: 51; 6HR MAX TEMP: 54; Charlotte CLOUDY 53 38 56 E14 30.22S 6HR MIN TEMP: 53; 6HR MAX TEMP: 58; Dallas DFW LGT RAIN 44 40 85 SE3 30.07F 6HR MIN TEMP: 43; 6HR MAX TEMP: 47; 6HR PCP: TRACE; Houston Bush CLOUDY 65 62 90 N5 30.04R 6HR MIN TEMP: 62; 6HR MAX TEMP: 65; Wash National MOCLDY 34 24 67 NE8 30.38R WCI 27 6HR MIN TEMP: 34; 6HR MAX TEMP: 39; Wash Dulles FAIR 30 23 75 N8 30.35S WCI 22 6HR MIN TEMP: 29; 6HR MAX TEMP: 36; Baltimore MOCLDY 31 22 69 VRB3 30.37R 6HR MIN TEMP: 29; 6HR MAX TEMP: 37; Philadelphia MOCLDY 29 15 56 N12G22 30.40R WCI 19 6HR MIN TEMP: 28; 6HR MAX TEMP: 36; Newark MOCLDY 26 14 60 NE7 30.40R WCI 18 6HR MIN TEMP: 26; 6HR MAX TEMP: 33; Laguardia FAIR 30 16 56 NW7 30.40R WCI 23 6HR MIN TEMP: 30; 6HR MAX TEMP: 36; J F K MOCLDY 28 17 63 NW8 30.41R WCI 20 6HR MIN TEMP: 28; 6HR MAX TEMP: 34; Boston FAIR 27 12 53 NW9 30.38R WCI 18 6HR MIN TEMP: 27; 6HR MAX TEMP: 32; Pittsburg MOCLDY 26 19 74 E3 30.23F 6HR MIN TEMP: 27; 6HR MAX TEMP: 29; Akron CLOUDY 29 18 63 S8 30.23F WCI 21 6HR MIN TEMP: 28; 6HR MAX TEMP: 30; Cleveland CLOUDY 30 20 66 S3 30.25F 6HR MIN TEMP: 29; 6HR MAX TEMP: 31; Cincinnati CLOUDY 31 28 89 E6 30.18F WCI 25 6HR MIN TEMP: 31; 6HR MAX TEMP: 35; Columbus CLOUDY 29 27 90 CALM 30.22F Detroit MOCLDY 22 18 85 S8 30.21F WCI 12 6HR MIN TEMP: 19; 6HR MAX TEMP: 23; Chicago O`Hare CLOUDY 18 10 71 S8 30.13F WCI 8 6HR MIN TEMP: 17; 6HR MAX TEMP: 20; Minneapolis CLOUDY 25 15 66 SW9 29.87F WCI 15 6HR MIN TEMP: 20; 6HR MAX TEMP: 25; Indianapolis FAIR 28 23 81 SE8 30.17F WCI 20 6HR MIN TEMP: 25; 6HR MAX TEMP: 29; Toronto Canada PTCLDY 21 16 79 S7 30.24F WCI 13 $$

USA.gov is the U.S. government's official web portal to all federal, state and local government web resources and services.